This demonstration page uses our WeatherBlox Daily Observations layout. Learn more.

41.55636, -103.73856

Hourly Observations for August 23, 2018

Temp ( °F °C ) Dew Point ( °F °C ) Humidity (%) Winds ( mph kmh ) Pressure ( in mb ) Visibility ( mi km ) Precip ( " mm )
12:58 am 00:58 Mostly Cloudy with Light Showers 63 17 55 12.9 77 77 NW 8 13 29.97 1015 10 16.09344 0.01 0.254
1:58 am 01:58 Mostly Cloudy 61 15.9 54 12 78 78 WSW 5 7 29.97 1015 10 16.09344 0.01 0.254
2:58 am 02:58 Partly Cloudy 57 14 51 10.5 80 80 W 6 9 29.94 1014 10 16.09344 0 0
3:58 am 03:58 Cloudy 57 14.1 53 11.5 84 84 W 7 11 29.91 1013 10 16.09344 0 0
4:58 am 04:58 Mostly Clear 57 13.7 51 10.7 82 82 W 12 19 29.91 1013 10 16.09344 0 0
5:58 am 05:58 Partly Cloudy 57 14.1 49 9.7 75 75 WSW 10 17 29.88 1012 10 16.09344 0 0
6:58 am 06:58 Mostly Cloudy 57 14.1 49 9.4 74 74 WSW 8 13 29.88 1012 10 16.09344 0 0
7:58 am 07:58 Sunny 62 16.6 48 8.8 60 60 W 9 15 29.91 1013 10 16.09344 0 0
8:58 am 08:58 Sunny 71 21.9 45 7.1 39 39 W 17 28 29.88 1012 10 16.09344 0 0
9:58 am 09:58 Sunny 74 23.1 44 6.4 34 34 WNW 15 24 29.88 1012 10 16.09344 0 0
10:58 am 10:58 Sunny 77 24.8 43 6.3 31 31 NW 15 24 29.88 1012 10 16.09344 0 0
11:58 am 11:58 Sunny 79 26.2 40 4.5 25 25 NW 18 30 29.85 1011 10 16.09344 0 0
12:58 pm 12:58 Sunny 82 27.5 37 2.5 20 20 WNW 17 28 29.85 1011 7 11.265408 0 0
1:58 pm 13:58 Sunny 82 27.9 35 1.4 18 18 NW 28 44 29.83 1010 6 9.656064 0 0
2:58 pm 14:58 Mostly Sunny 81 27 37 2.8 21 21 NW 16 26 29.83 1010 6 9.656064 0 0
3:58 pm 15:58 Mostly Sunny 83 28.1 35 1.8 18 18 WNW 21 33 29.8 1009 7 11.265408 0 0
4:58 pm 16:58 Sunny 80 26.6 34 1.2 19 19 W 17 28 29.8 1009 6 9.656064 0 0
5:58 pm 17:58 Mostly Sunny 72 22.3 40 4.3 31 31 N 15 24 29.83 1010 9 14.484096 0 0
6:58 pm 18:58 Mostly Sunny 67 19.5 45 7.1 45 45 NE 6 9 29.83 1010 9 14.484096 0 0
7:58 pm 19:58 Clear 69 20.4 40 4.6 36 36 W 9 15 29.83 1010 8 12.874752 0 0
8:58 pm 20:58 Hazy 63 17.2 43 6.3 49 49 NNE 10 17 29.83 1010 5 8.04672 0 0
9:58 pm 21:58 Mostly Cloudy 60 15.7 44 6.6 55 55 Calm 29.83 1010 9 14.484096 0 0
10:58 pm 22:58 Clear 59 14.8 44 6.4 57 57 WNW 6 9 29.85 1011 10 16.09344 0 0
11:58 pm 23:58 Clear 56 13.2 42 5.8 61 61 NNW 10 17 29.85 1011 10 16.09344 0 0

Powered by AerisWeather